Location: Delettes
(50.6178°N, 2.2123°E)
Time: 21:36:14
(UTC+00:00)

STARLINK-48 - Pass Details

Date: 27 February 2020
Orbit: 506 x 508 km, 53.0° (Epoch: 29 March)

Event Time Altitude Azimuth Distance (km) Brightness Sun altitude
Rises 18:54:10 0° 288° (WNW) 2,617 8.7 -14.4°
Reaches altitude 10° 18:56:22 10° 289° (WNW) 1,731 7.4 -14.7°
Maximum altitude 19:00:18 87° 14° (NNE) 516 3.4 -15.4°
Enters shadow 19:02:05 31° 108° (ESE) 914 4.2 -15.6°
